Time,TemperatureF,DewpointF,PressureIn,WindDirection,WindDirectionDegrees,WindSpeedMPH,WindSpeedGustMPH,Humidity,HourlyPrecipIn,Conditions,Clouds,dailyrainin,SolarRadiationWatts/m^2,SoftwareType,DateUTC
2014-10-31 00:03:00,37.9,34.4,29.95,NW,315,0.0,0.0,87,0.00,CLR,,0.00,0.0,WeatherDisplay:10.37,2014-10-31 04:03:00,
2014-10-31 00:08:00,38.1,34.6,29.95,North,0,1.2,0.0,87,0.00,CLR,,0.00,0.0,WeatherDisplay:10.37,2014-10-31 04:08:00,
2014-10-31 00:13:00,38.5,35.2,29.95,North,0,0.0,0.0,88,0.00,CLR,,0.00,0.0,WeatherDisplay:10.37,2014-10-31 04:13:00,
2014-10-31 00:18:00,38.7,35.4,29.95,North,0,0.0,0.0,88,0.00,CLR,,0.00,0.0,WeatherDisplay:10.37,2014-10-31 04:18:00,
2014-10-31 00:23:00,38.8,35.6,29.95,North,0,0.0,0.0,88,0.00,CLR,,0.00,0.0,WeatherDisplay:10.37,2014-10-31 04:23:00,
2014-10-31 00:28:00,39.2,35.7,29.95,North,0,0.0,0.0,87,0.00,CLR,,0.00,0.0,WeatherDisplay:10.37,2014-10-31 04:28:00,
2014-10-31 00:33:00,39.6,36.0,29.95,North,0,0.0,0.0,87,0.00,CLR,,0.00,0.0,WeatherDisplay:10.37,2014-10-31 04:33:00,
2014-10-31 00:38:00,39.7,35.9,29.94,North,0,0.0,0.0,86,0.00,CLR,,0.00,0.0,WeatherDisplay:10.37,2014-10-31 04:38:00,
2014-10-31 00:43:00,39.9,36.1,29.95,North,0,0.0,0.0,86,0.00,CLR,,0.00,0.0,WeatherDisplay:10.37,2014-10-31 04:43:00,
2014-10-31 00:48:00,40.1,36.0,29.95,North,0,0.0,0.0,85,0.00,CLR,,0.00,0.0,WeatherDisplay:10.37,2014-10-31 04:48:00,
2014-10-31 00:53:00,40.3,36.1,29.95,North,0,0.0,0.0,85,0.00,CLR,,0.00,0.0,WeatherDisplay:10.37,2014-10-31 04:53:00,
2014-10-31 00:58:00,40.3,36.1,29.94,North,0,0.0,0.0,85,0.00,CLR,,0.00,0.0,WeatherDisplay:10.37,2014-10-31 04:58:00,
2014-10-31 01:03:00,40.5,36.3,29.95,North,0,0.0,0.0,85,0.00,CLR,,0.00,0.0,WeatherDisplay:10.37,2014-10-31 05:03:00,
2014-10-31 01:08:00,40.6,36.5,29.94,North,0,0.0,0.0,85,0.00,CLR,,0.00,0.0,WeatherDisplay:10.37,2014-10-31 05:08:00,
2014-10-31 01:13:00,40.8,36.7,29.94,North,0,0.0,0.0,85,0.00,CLR,,0.00,0.0,WeatherDisplay:10.37,2014-10-31 05:13:00,
2014-10-31 01:18:00,41.0,36.5,29.94,NE,45,0.0,0.0,84,0.00,CLR,,0.00,0.0,WeatherDisplay:10.37,2014-10-31 05:18:00,
2014-10-31 01:23:00,41.2,36.7,29.94,NE,45,0.0,0.0,84,0.00,CLR,,0.00,0.0,WeatherDisplay:10.37,2014-10-31 05:23:00,
2014-10-31 01:28:00,41.4,36.6,29.94,NE,45,0.0,0.0,83,0.00,CLR,,0.00,0.0,WeatherDisplay:10.37,2014-10-31 05:28:00,
2014-10-31 01:33:00,41.4,36.6,29.94,South,180,1.2,0.0,83,0.00,CLR,,0.00,0.0,WeatherDisplay:10.37,2014-10-31 05:33:00,
2014-10-31 01:38:00,41.5,36.8,29.94,South,180,0.0,0.0,83,0.00,CLR,,0.00,0.0,WeatherDisplay:10.37,2014-10-31 05:38:00,
2014-10-31 01:43:00,41.7,36.9,29.94,NE,45,0.0,0.0,83,0.00,CLR,,0.00,0.0,WeatherDisplay:10.37,2014-10-31 05:43:00,
2014-10-31 01:48:00,41.9,36.8,29.94,East,90,0.0,0.0,82,0.00,CLR,,0.00,0.0,WeatherDisplay:10.37,2014-10-31 05:48:00,
2014-10-31 01:53:00,42.1,36.7,29.93,East,90,0.0,0.0,81,0.00,CLR,,0.00,0.0,WeatherDisplay:10.37,2014-10-31 05:53:00,
2014-10-31 01:58:00,42.1,36.4,29.93,East,90,0.0,0.0,80,0.00,CLR,,0.00,0.0,WeatherDisplay:10.37,2014-10-31 05:58:00,
2014-10-31 02:03:00,42.1,36.4,29.93,East,90,0.0,0.0,80,0.00,CLR,,0.00,0.0,WeatherDisplay:10.37,2014-10-31 06:03:00,
2014-10-31 02:08:00,42.3,36.2,29.93,East,90,0.0,0.0,79,0.00,CLR,,0.00,0.0,WeatherDisplay:10.37,2014-10-31 06:08:00,
2014-10-31 02:13:00,42.4,36.4,29.93,SE,135,1.2,0.0,79,0.00,CLR,,0.00,0.0,WeatherDisplay:10.37,2014-10-31 06:13:00,
2014-10-31 02:18:00,42.4,36.4,29.93,SE,135,1.2,0.0,79,0.00,CLR,,0.00,0.0,WeatherDisplay:10.37,2014-10-31 06:18:00,
2014-10-31 02:23:00,42.4,36.4,29.93,SE,135,0.0,0.0,79,0.00,CLR,,0.00,0.0,WeatherDisplay:10.37,2014-10-31 06:23:00,
2014-10-31 02:28:00,42.4,36.1,29.93,East,90,0.0,0.0,78,0.00,CLR,,0.00,0.0,WeatherDisplay:10.37,2014-10-31 06:28:00,
2014-10-31 02:33:00,42.4,36.1,29.92,SE,135,1.2,0.0,78,0.00,CLR,,0.00,0.0,WeatherDisplay:10.37,2014-10-31 06:33:00,
2014-10-31 02:38:00,42.6,36.2,29.92,SE,135,1.2,0.0,78,0.00,CLR,,0.00,0.0,WeatherDisplay:10.37,2014-10-31 06:38:00,
2014-10-31 02:43:00,42.6,36.2,29.92,SE,135,1.2,0.0,78,0.00,CLR,,0.00,0.0,WeatherDisplay:10.37,2014-10-31 06:43:00,
2014-10-31 02:48:00,42.6,36.2,29.92,East,90,1.2,0.0,78,0.00,CLR,,0.00,0.0,WeatherDisplay:10.37,2014-10-31 06:48:00,
2014-10-31 02:53:00,42.6,36.2,29.92,East,90,1.2,0.0,78,0.00,CLR,,0.00,0.0,WeatherDisplay:10.37,2014-10-31 06:53:00,
2014-10-31 02:58:00,42.6,36.2,29.92,SE,135,1.2,0.0,78,0.00,CLR,,0.00,0.0,WeatherDisplay:10.37,2014-10-31 06:58:00,
2014-10-31 03:03:00,42.6,36.2,29.92,SE,135,1.2,0.0,78,0.00,CLR,,0.00,0.0,WeatherDisplay:10.37,2014-10-31 07:03:00,
2014-10-31 03:08:00,42.6,36.2,29.92,SE,135,0.0,0.0,78,0.00,CLR,,0.00,0.0,WeatherDisplay:10.37,2014-10-31 07:08:00,
2014-10-31 03:13:00,42.4,36.1,29.92,NW,315,0.0,0.0,78,0.00,CLR,,0.00,0.0,WeatherDisplay:10.37,2014-10-31 07:13:00,
2014-10-31 03:18:00,42.4,36.7,29.92,NW,315,1.2,0.0,80,0.00,CLR,,0.00,0.0,WeatherDisplay:10.37,2014-10-31 07:18:00,
2014-10-31 03:23:00,42.4,37.0,29.93,NW,315,1.2,0.0,81,0.00,CLR,,0.00,0.0,WeatherDisplay:10.37,2014-10-31 07:23:00,
2014-10-31 03:28:00,42.4,37.0,29.92,West,270,1.2,0.0,81,0.00,CLR,,0.00,0.0,WeatherDisplay:10.37,2014-10-31 07:28:00,
2014-10-31 03:33:00,42.6,37.8,29.92,South,180,1.2,1.2,83,0.00,CLR,,0.00,0.0,WeatherDisplay:10.37,2014-10-31 07:33:00,
2014-10-31 03:38:00,42.4,37.9,29.92,West,270,1.2,1.2,84,0.00,CLR,,0.00,0.0,WeatherDisplay:10.37,2014-10-31 07:38:00,
2014-10-31 03:43:00,42.3,38.1,29.92,NE,45,0.0,0.0,85,0.00,CLR,,0.00,0.0,WeatherDisplay:10.37,2014-10-31 07:43:00,
2014-10-31 03:48:00,42.1,37.9,29.92,West,270,1.2,0.0,85,0.00,CLR,,0.00,0.0,WeatherDisplay:10.37,2014-10-31 07:48:00,
2014-10-31 03:53:00,42.1,38.2,29.91,SE,135,0.0,0.0,86,0.00,CLR,,0.00,0.0,WeatherDisplay:10.37,2014-10-31 07:53:00,
2014-10-31 03:58:00,41.9,38.0,29.91,ESE,112,0.0,0.0,86,0.00,CLR,,0.00,0.0,WeatherDisplay:10.37,2014-10-31 07:58:00,
2014-10-31 04:03:00,41.9,38.3,29.91,NW,315,1.2,0.0,87,0.00,CLR,,0.00,0.0,WeatherDisplay:10.37,2014-10-31 08:03:00,
2014-10-31 04:08:00,41.7,38.4,29.91,NW,315,0.0,0.0,88,0.00,CLR,,0.00,0.0,WeatherDisplay:10.37,2014-10-31 08:08:00,
2014-10-31 04:13:00,41.7,38.4,29.91,SE,135,1.2,0.0,88,0.00,CLR,,0.00,0.0,WeatherDisplay:10.37,2014-10-31 08:13:00,
2014-10-31 04:18:00,41.5,38.3,29.91,SE,135,1.2,0.0,88,0.00,CLR,,0.00,0.0,WeatherDisplay:10.37,2014-10-31 08:18:00,
2014-10-31 04:23:00,41.5,38.5,29.90,SE,135,0.0,0.0,89,0.00,CLR,,0.00,0.0,WeatherDisplay:10.37,2014-10-31 08:23:00,
2014-10-31 04:28:00,41.5,38.8,29.90,SE,135,0.0,0.0,90,0.00,CLR,,0.00,0.0,WeatherDisplay:10.37,2014-10-31 08:28:00,
2014-10-31 04:33:00,41.5,39.1,29.90,SE,135,1.2,0.0,91,0.00,CLR,,0.00,0.0,WeatherDisplay:10.37,2014-10-31 08:33:00,
2014-10-31 04:38:00,41.5,39.1,29.90,SE,135,1.2,1.2,91,0.00,CLR,,0.00,0.0,WeatherDisplay:10.37,2014-10-31 08:38:00,
2014-10-31 04:43:00,41.5,39.7,29.90,SE,135,1.2,0.0,93,0.00,CLR,,0.00,0.0,WeatherDisplay:10.37,2014-10-31 08:43:00,
2014-10-31 04:48:00,41.5,39.7,29.90,NW,315,1.2,0.0,93,0.00,CLR,,0.00,0.0,WeatherDisplay:10.37,2014-10-31 08:48:00,
2014-10-31 04:53:00,41.5,39.7,29.90,NW,315,1.2,0.0,93,0.00,CLR,,0.00,0.0,WeatherDisplay:10.37,2014-10-31 08:53:00,
2014-10-31 04:58:00,41.5,39.7,29.90,NW,315,0.0,0.0,93,0.00,CLR,,0.00,0.0,WeatherDisplay:10.37,2014-10-31 08:58:00,
2014-10-31 05:03:00,41.5,39.7,29.90,SE,135,1.2,1.2,93,0.00,CLR,,0.00,0.0,WeatherDisplay:10.37,2014-10-31 09:03:00,
2014-10-31 05:08:00,41.5,39.9,29.90,South,180,1.2,1.2,94,0.00,CLR,,0.00,0.0,WeatherDisplay:10.37,2014-10-31 09:08:00,
2014-10-31 05:13:00,41.5,39.9,29.89,SE,135,1.2,0.0,94,0.00,CLR,,0.00,0.0,WeatherDisplay:10.37,2014-10-31 09:13:00,
2014-10-31 05:18:00,41.5,39.9,29.89,SE,135,0.0,0.0,94,0.00,CLR,,0.00,0.0,WeatherDisplay:10.37,2014-10-31 09:18:00,
2014-10-31 05:23:00,41.5,39.9,29.89,SE,135,0.0,0.0,94,0.00,CLR,,0.00,0.0,WeatherDisplay:10.37,2014-10-31 09:23:00,
2014-10-31 05:28:00,41.4,39.8,29.89,SE,135,0.0,0.0,94,0.00,CLR,,0.00,0.0,WeatherDisplay:10.37,2014-10-31 09:28:00,
2014-10-31 05:33:00,41.2,39.6,29.89,South,180,0.0,0.0,94,0.00,CLR,,0.00,0.0,WeatherDisplay:10.37,2014-10-31 09:33:00,
2014-10-31 05:38:00,41.0,39.4,29.89,South,180,0.0,0.0,94,0.00,CLR,,0.00,0.0,WeatherDisplay:10.37,2014-10-31 09:38:00,
2014-10-31 05:43:00,41.0,39.4,29.89,SE,135,0.0,0.0,94,0.00,CLR,,0.00,0.0,WeatherDisplay:10.37,2014-10-31 09:43:00,
2014-10-31 05:48:00,40.8,39.5,29.89,South,180,0.0,0.0,95,0.00,CLR,,0.00,0.0,WeatherDisplay:10.37,2014-10-31 09:48:00,
2014-10-31 05:53:00,40.6,39.6,29.88,South,180,0.0,0.0,96,0.00,CLR,,0.00,0.0,WeatherDisplay:10.37,2014-10-31 09:53:00,
2014-10-31 05:58:00,40.5,39.4,29.88,SE,135,0.0,0.0,96,0.00,CLR,,0.00,0.0,WeatherDisplay:10.37,2014-10-31 09:58:00,
2014-10-31 06:03:00,40.5,39.7,29.88,South,180,0.0,0.0,97,0.00,CLR,,0.00,0.0,WeatherDisplay:10.37,2014-10-31 10:03:00,
2014-10-31 06:08:00,40.3,39.5,29.88,South,180,3.5,3.5,97,0.00,CLR,,0.00,0.0,WeatherDisplay:10.37,2014-10-31 10:08:00,
2014-10-31 06:13:00,40.1,39.6,29.89,South,180,3.5,3.5,98,0.00,CLR,,0.00,0.0,WeatherDisplay:10.37,2014-10-31 10:13:00,
2014-10-31 06:18:00,40.3,40.0,29.88,South,180,1.2,1.2,99,0.00,CLR,,0.00,0.0,WeatherDisplay:10.37,2014-10-31 10:18:00,
2014-10-31 06:23:00,40.3,40.0,29.88,SE,135,2.3,2.3,99,0.00,CLR,,0.00,0.0,WeatherDisplay:10.37,2014-10-31 10:23:00,
2014-10-31 06:28:00,40.1,39.8,29.88,SE,135,1.2,1.6,99,0.00,CLR,,0.00,0.0,WeatherDisplay:10.37,2014-10-31 10:28:00,
2014-10-31 06:33:00,40.3,40.0,29.88,SE,135,1.2,1.2,99,0.00,CLR,,0.00,0.0,WeatherDisplay:10.37,2014-10-31 10:33:00,
2014-10-31 06:38:00,40.3,40.0,29.88,SE,135,2.3,2.3,99,0.00,CLR,,0.00,0.0,WeatherDisplay:10.37,2014-10-31 10:38:00,
2014-10-31 06:43:00,40.3,40.0,29.88,South,180,1.2,1.2,99,0.00,CLR,,0.00,0.0,WeatherDisplay:10.37,2014-10-31 10:43:00,
2014-10-31 06:48:00,40.3,40.0,29.88,SW,225,2.3,2.3,99,0.00,CLR,,0.00,0.0,WeatherDisplay:10.37,2014-10-31 10:48:00,
2014-10-31 06:53:00,40.5,40.2,29.88,SE,135,1.2,0.0,99,0.00,CLR,,0.00,0.0,WeatherDisplay:10.37,2014-10-31 10:53:00,
2014-10-31 06:58:00,40.5,40.2,29.88,SE,135,1.2,1.2,99,0.00,CLR,,0.00,0.0,WeatherDisplay:10.37,2014-10-31 10:58:00,
2014-10-31 07:03:00,40.5,40.2,29.87,SE,135,1.2,0.0,99,0.00,CLR,,0.00,0.0,WeatherDisplay:10.37,2014-10-31 11:03:00,
2014-10-31 07:08:00,40.5,40.2,29.87,South,180,1.2,0.0,99,0.00,CLR,,0.00,0.0,WeatherDisplay:10.37,2014-10-31 11:08:00,
2014-10-31 07:13:00,40.5,40.2,29.87,SE,135,1.2,1.2,99,0.00,CLR,,0.00,0.0,WeatherDisplay:10.37,2014-10-31 11:13:00,
2014-10-31 07:18:00,40.5,40.2,29.87,South,180,1.2,1.2,99,0.00,CLR,,0.00,0.0,WeatherDisplay:10.37,2014-10-31 11:18:00,
2014-10-31 07:23:00,40.6,40.4,29.87,South,180,1.2,1.2,99,0.00,CLR,,0.00,0.0,WeatherDisplay:10.37,2014-10-31 11:23:00,
2014-10-31 07:28:00,40.6,40.4,29.87,South,180,1.2,1.2,99,0.00,CLR,,0.00,0.0,WeatherDisplay:10.37,2014-10-31 11:28:00,
2014-10-31 07:33:00,40.6,40.4,29.87,South,180,1.2,2.2,99,0.00,CLR,,0.00,0.0,WeatherDisplay:10.37,2014-10-31 11:33:00,
2014-10-31 07:38:00,40.6,40.4,29.87,South,180,2.3,2.3,99,0.00,CLR,,0.00,0.0,WeatherDisplay:10.37,2014-10-31 11:38:00,
2014-10-31 07:43:00,40.6,40.4,29.87,South,180,2.3,2.3,99,0.00,CLR,,0.00,0.0,WeatherDisplay:10.37,2014-10-31 11:43:00,
2014-10-31 07:48:00,40.6,40.4,29.87,South,180,2.3,2.3,99,0.00,CLR,,0.00,0.0,WeatherDisplay:10.37,2014-10-31 11:48:00,
2014-10-31 07:53:00,40.6,40.4,29.87,South,180,3.5,3.5,99,0.00,CLR,,0.00,0.0,WeatherDisplay:10.37,2014-10-31 11:53:00,
2014-10-31 07:58:00,41.0,40.2,29.87,SSE,158,3.5,3.5,97,0.00,CLR,,0.00,0.0,WeatherDisplay:10.37,2014-10-31 11:58:00,
2014-10-31 08:03:00,41.0,40.2,29.87,SSW,202,1.2,1.2,97,0.00,CLR,,0.00,0.0,WeatherDisplay:10.37,2014-10-31 12:03:00,
2014-10-31 08:08:00,41.0,39.9,29.86,SE,135,3.5,3.5,96,0.00,CLR,,0.00,0.0,WeatherDisplay:10.37,2014-10-31 12:08:00,
2014-10-31 08:13:00,41.2,39.9,29.86,SW,225,2.3,2.3,95,0.00,CLR,,0.00,0.0,WeatherDisplay:10.37,2014-10-31 12:13:00,
2014-10-31 08:18:00,41.2,39.9,29.86,SW,225,3.5,3.5,95,0.00,CLR,,0.00,0.0,WeatherDisplay:10.37,2014-10-31 12:18:00,
2014-10-31 08:23:00,41.2,39.6,29.86,SW,225,3.5,3.5,94,0.00,CLR,,0.00,0.0,WeatherDisplay:10.37,2014-10-31 12:23:00,
2014-10-31 08:28:00,41.2,39.6,29.86,South,180,5.8,5.8,94,0.00,CLR,,0.00,0.0,WeatherDisplay:10.37,2014-10-31 12:28:00,
2014-10-31 08:33:00,41.2,39.6,29.86,SW,225,3.5,3.5,94,0.00,CLR,,0.00,0.0,WeatherDisplay:10.37,2014-10-31 12:33:00,
2014-10-31 08:38:00,41.4,39.8,29.87,South,180,3.5,3.5,94,0.00,CLR,,0.00,0.0,WeatherDisplay:10.37,2014-10-31 12:38:00,
2014-10-31 08:43:00,41.4,39.8,29.86,South,180,5.8,5.8,94,0.00,CLR,,0.00,0.0,WeatherDisplay:10.37,2014-10-31 12:43:00,
2014-10-31 08:48:00,41.5,39.9,29.87,SW,225,3.5,3.5,94,0.00,CLR,,0.00,0.0,WeatherDisplay:10.37,2014-10-31 12:48:00,
2014-10-31 08:53:00,41.7,39.8,29.86,SW,225,5.8,5.8,93,0.00,CLR,,0.00,0.0,WeatherDisplay:10.37,2014-10-31 12:53:00,
2014-10-31 08:58:00,41.9,40.0,29.86,South,180,3.5,3.5,93,0.00,CLR,,0.00,0.0,WeatherDisplay:10.37,2014-10-31 12:58:00,